SL-8 DEB, 1479

Orbit data source: Space-Track

SL-8 DEB, 1479 is space debris in LEO originally from a launch on Mon, 15 Mar 1965 UTC launched from the Tyuratam Missile And Space Complex (TTMTR). Debris objects in space refer to the collection of defunct objects orbiting the Earth. Examples of debris include non-operational satellites, rocket bodies, and fragments generated from explosions, collisions, or faulty payload assembly.

Loading next visibility...
Identifier
1479, 1965-020BD
Orbit
LEO
Country
Flag of CISCIS
Related business
Manufacturer
Unknown
Mission
Spacecraft
Bus & Motor
Unknown
Mass
Unknown
Launch date (UTC)
1965-03-15 (61 years ago)
Launch vehicle
Unknown
Launch site
Tyuratam Missile And Space Complex (TTMTR)
Object type
Payload
Rocket body
Debris
Shape & HBR
Unknown shape, 0.1 m
Radar Cross Section
Medium (>0.1 m² and <1 m²)

Expand to show TLE details & history
Last TLE update: 6 days ago

TLE from 6 days ago
0 SL-8 DEB
1 01479U 65020BD  26155.00448953 -.00000362  00000-0 -51699-3 0  9992
2 01479  56.0337 335.5925 0739630  50.5359 315.8646 12.59990729794707
Epoch: 2026-06-04T00:06Z
TLE epoch observation values (Epoch: 2026-06-04T00:06:27.895Z)
Latitude
-0.00002°
Longitude
81.52128°
Altitude
1,032.334 km
Speed
7.518 km/s
True Right ascension
22h 22m 22s
True Declination
0° 00' 00"
Sunlit
Object was in daylight at epoch
Visualization orbit readout
Latitude
Unknown
Longitude
Unknown
Altitude
Unknown
Speed
Unknown
Apparent Right ascension
Unknown
Apparent Declination
Unknown
Sunlit
N/A
Visualization observer readout
Local Sidereal Time
13:17:34
Azimuth
Unknown
Elevation
Unknown
Doppler factor
Unknown
Orbital elements
Apogee altitude
1,999.788 km
Perigee altitude
845.825 km
Semi-major axis
7,800.944 km
Eccentricity
0.07396
Inclination
56.0337°
RAAN
335.5925°
Arg. of periapsis
50.5359°
True anomaly
309.55732°
Mean anomaly
315.8646°
Eccentric anomaly
312.75286°
Mean motion
3.15009 °/min
Orbital period
114.28 mins
BSTAR
-0.00051699
Loading maneuver chart data...
Computing Atmospheric mass density...
Loading historical data...
Loading historical data...
Loading historical data...
Loading historical data...
Loading historical data...
Loading historical data...
Loading historical data...

Documentation

Showing up to 5 results
|